QPF
0.05 0.05 0.06 0.06 0.08 0.11 0.13 0.14 0.13 0.11 0.09 0.08 0.07 0.08 0.09 0.11 0.11 0.11 0.11 0.12 0.13 0.12 0.12 0.10 0.09 0.09 0.08 0.09 0.09 0.08 0.07 0.07 0.06 0.04 0.03 0.02 0.02 0.03 0.05 0.06 0.05 0.04 0.04
0.06 0.06 0.08 0.08 0.07 0.09 0.09 0.10 0.10 0.10 0.10 0.11 0.11 0.10 0.11 0.11 0.11 0.11 0.12 0.11 0.11 0.11 0.12 0.12 0.11 0.10 0.07 0.07 0.07 0.06 0.05 0.05 0.05 0.04 0.04 0.03 0.03 0.03 0.04 0.05 0.04 0.03 0.03
0.07 0.08 0.09 0.09 0.08 0.09 0.06 0.06 0.06 0.07 0.10 0.10 0.10 0.11 0.13 0.14 0.14 0.12 0.13 0.15 0.15 0.15 0.14 0.12 0.09 0.09 0.07 0.07 0.09 0.08 0.07 0.06 0.05 0.04 0.03 0.04 0.04 0.04 0.04 0.04 0.04 0.04 0.03
0.10 0.09 0.08 0.08 0.08 0.08 0.06 0.06 0.05 0.05 0.07 0.08 0.08 0.09 0.12 0.13 0.14 0.15 0.15 0.14 0.14 0.13 0.11 0.11 0.10 0.09 0.09 0.09 0.08 0.07 0.08 0.07 0.06 0.06 0.06 0.05 0.05 0.05 0.04 0.04 0.04 0.04 0.04
0.10 0.11 0.09 0.08 0.06 0.06 0.06 0.07 0.06 0.05 0.05 0.05 0.06 0.06 0.08 0.09 0.11 0.13 0.12 0.11 0.11 0.11 0.11 0.12 0.12 0.12 0.12 0.11 0.11 0.10 0.10 0.09 0.07 0.06 0.06 0.05 0.04 0.04 0.04 0.04 0.05 0.06 0.06
0.05 0.05 0.04 0.04 0.05 0.04 0.04 0.04 0.04 0.05 0.05 0.05 0.04 0.04 0.04 0.06 0.10 0.13 0.13 0.10 0.09 0.09 0.10 0.10 0.10 0.10 0.10 0.11 0.11 0.11 0.10 0.10 0.09 0.08 0.07 0.06 0.05 0.05 0.05 0.05 0.05 0.06 0.06
0.05 0.03 0.02 0.03 0.04 0.03 0.04 0.05 0.06 0.09 0.11 0.10 0.09 0.07 0.05 0.07 0.09 0.09 0.08 0.06 0.08 0.09 0.09 0.10 0.10 0.10 0.10 0.11 0.14 0.15 0.14 0.14 0.12 0.11 0.11 0.10 0.09 0.08 0.07 0.06 0.06 0.05 0.05
0.03 0.02 0.02 0.02 0.03 0.04 0.05 0.06 0.09 0.11 0.14 0.14 0.14 0.13 0.08 0.07 0.07 0.06 0.06 0.06 0.06 0.07 0.09 0.10 0.10 0.10 0.11 0.12 0.14 0.15 0.15 0.14 0.14 0.13 0.12 0.12 0.12 0.10 0.08 0.07 0.07 0.06 0.06
0.02 0.02 0.01 0.01 0.03 0.04 0.05 0.08 0.11 0.13 0.12 0.08 0.07 0.08 0.07 0.06 0.07 0.07 0.07 0.06 0.07 0.08 0.09 0.10 0.12 0.11 0.12 0.11 0.11 0.14 0.15 0.15 0.14 0.13 0.13 0.13 0.12 0.09 0.07 0.06 0.05 0.04 0.04
0.01 0.02 0.02 0.03 0.04 0.05 0.07 0.08 0.08 0.07 0.06 0.06 0.07 0.07 0.07 0.06 0.07 0.06 0.05 0.04 0.07 0.09 0.09 0.09 0.10 0.11 0.14 0.14 0.13 0.13 0.14 0.13 0.11 0.10 0.09 0.08 0.08 0.07 0.06 0.04 0.03 0.04 0.04
0.02 0.02 0.02 0.03 0.04 0.05 0.07 0.08 0.08 0.08 0.08 0.10 0.11 0.10 0.07 0.05 0.05 0.05 0.04 0.03 0.05 0.05 0.06 0.07 0.08 0.11 0.14 0.16 0.15 0.14 0.14 0.12 0.09 0.07 0.05 0.03 0.02 0.02 0.01 0.01 0.01 0.02 0.02
0.02 0.02 0.03 0.04 0.05 0.05 0.06 0.06 0.06 0.07 0.09 0.08 0.06 0.04 0.04 0.05 0.04 0.03 0.04 0.05 0.04 0.04 0.05 0.07 0.10 0.11 0.12 0.14 0.15 0.15 0.13 0.09 0.06 0.04 0.03 0.02 0.01 0.01 0.01 0.01 0.00 0.01 0.01
0.03 0.03 0.03 0.04 0.04 0.04 0.03 0.03 0.04 0.05 0.05 0.05 0.04 0.02 0.02 0.04 0.05 0.04 0.03 0.04 0.04 0.04 0.06 0.07 0.08 0.07 0.08 0.08 0.08 0.06 0.04 0.03 0.02 0.02 0.02 0.01 0.01 0.01 0.01 0.01 0.01 0.00 0.00
0.03 0.03 0.04 0.04 0.05 0.04 0.03 0.02 0.02 0.03 0.03 0.02 0.03 0.03 0.02 0.03 0.04 0.04 0.03 0.03 0.04 0.05 0.05 0.07 0.07 0.06 0.05 0.04 0.03 0.02 0.01 0.01 0.01 0.00 0.01 0.01 0.01 0.01 0.00 0.00 0.00 0.00 0.00
0.01 0.02 0.03 0.03 0.02 0.01 0.02 0.02 0.02 0.02 0.02 0.02 0.02 0.02 0.02 0.03 0.03 0.03 0.03 0.04 0.04 0.03 0.02 0.01 0.01 0.02 0.01 0.01 0.01 0.00 0.00 0.00 0.00 0.00 0.00 0.00 0.00 0.00 0.00 0.00 0.00 0.00 0.00
0.01 0.01 0.02 0.01 0.01 0.01 0.01 0.01 0.01 0.01 0.01 0.01 0.01 0.01 0.01 0.02 0.02 0.02 0.02 0.02 0.01 0.01 0.00 0.00 0.00 0.00 0.00 0.00 0.00 0.01 0.01 0.01 0.00 0.00 0.00 0.00 0.00 0.00 0.00 0.00 0.00 0.00 0.00
0.02 0.01 0.01 0.01 0.01 0.01 0.01 0.01 0.01 0.00 0.00 0.01 0.01 0.01 0.00 0.01 0.02 0.03 0.02 0.01 0.01 0.00 0.00 0.00 0.00 0.00 0.00 0.00 0.00 0.00 0.00 0.00 0.00 0.00 0.00 0.00 0.00 0.00 0.00 0.00 0.00 0.00 0.00
0.01 0.01 0.01 0.01 0.01 0.01 0.01 0.01 0.00 0.00 0.00 0.00 0.01 0.01 0.01 0.01 0.01 0.00 0.00 0.01 0.01 0.00 0.00 0.00 0.00 0.00 0.00 0.00 0.00 0.00 0.00 0.00 0.00 0.00 0.00 0.00 0.00 0.00 0.00 0.00 0.00 0.00 0.00
0.01 0.01 0.01 0.01 0.01 0.01 0.02 0.01 0.01 0.00 0.00 0.00 0.00 0.00 0.00 0.00 0.00 0.00 0.00 0.00 0.00 0.00 0.00 0.00 0.00 0.00 0.00 0.00 0.00 0.00 0.00 0.00 0.00 0.00 0.00 0.00 0.00 0.00 0.00 0.00 0.00 0.00 0.00
0.01 0.02 0.02 0.01 0.01 0.01 0.01 0.01 0.01 0.01 0.01 0.01 0.01 0.00 0.00 0.00 0.00 0.00 0.00 0.00 0.00 0.00 0.00 0.00 0.00 0.00 0.00 0.00 0.00 0.00 0.00 0.00 0.00 0.00 0.00 0.00 0.00 0.00 0.00 0.00 0.00 0.00 0.00
0.01 0.02 0.02 0.01 0.01 0.01 0.01 0.02 0.02 0.01 0.01 0.01 0.01 0.01 0.01 0.00 0.00 0.00 0.00 0.00 0.00 0.00 0.00 0.00 0.00 0.00 0.00 0.00 0.00 0.00 0.00 0.00 0.00 0.00 0.00 0.00 0.00 0.00 0.00 0.00 0.00 0.00 0.00
0.01 0.02 0.02 0.02 0.02 0.02 0.02 0.02 0.01 0.01 0.01 0.01 0.01 0.01 0.01 0.00 0.00 0.00 0.00 0.00 0.00 0.00 0.00 0.00 0.00 0.00 0.00 0.00 0.00 0.00 0.00 0.00 0.00 0.00 0.00 0.00 0.00 0.00 0.00 0.00 0.00 0.00 0.00
0.01 0.01 0.02 0.02 0.02 0.03 0.03 0.02 0.01 0.01 0.01 0.01 0.00 0.00 0.00 0.00 0.00 0.00 0.00 0.00 0.00 0.00 0.00 0.00 0.00 0.00 0.00 0.00 0.00 0.00 0.00 0.00 0.00 0.00 0.00 0.00 0.00 0.00 0.00 0.00 0.00 0.00 0.00
0.01 0.01 0.02 0.02 0.02 0.02 0.01 0.01 0.00 0.00 0.00 0.00 0.00 0.00 0.00 0.00 0.00 0.00 0.00 0.00 0.00 0.00 0.00 0.00 0.00 0.00 0.00 0.00 0.00 0.00 0.00 0.00 0.00 0.00 0.00 0.00 0.00 0.00 0.00 0.00 0.00 0.00 0.00
0.01 0.01 0.01 0.01 0.01 0.02 0.01 0.01 0.01 0.00 0.00 0.00 0.00 0.00 0.00 0.00 0.00 0.00 0.00 0.00 0.00 0.00 0.00 0.00 0.00 0.00 0.00 0.00 0.00 0.00 0.00 0.00 0.00 0.00 0.00 0.00 0.00 0.00 0.00 0.00 0.00 0.00 0.00
0.00 0.01 0.01 0.01 0.01 0.01 0.01 0.01 0.01 0.01 0.00 0.00 0.00 0.00 0.00 0.00 0.00 0.00 0.00 0.00 0.00 0.00 0.00 0.00 0.00 0.00 0.00 0.00 0.00 0.00 0.00 0.00 0.00 0.00 0.00 0.00 0.00 0.00 0.00 0.00 0.00 0.00 0.00
MSLP
1013.06 1013.36 1013.68 1013.97 1014.17 1014.27 1014.27 1014.20 1014.09 1013.99 1013.93 1013.95 1014.05 1014.21 1014.41 1014.63 1014.83 1015.01 1015.16 1015.29 1015.40 1015.54 1015.70 1015.89 1016.12 1016.37 1016.63 1016.87 1017.08 1017.24 1017.36 1017.44 1017.48 1017.49 1017.49 1017.48 1017.47 1017.46 1017.45 1017.44 1017.42 1017.40 1017.38
1012.77 1013.08 1013.42 1013.74 1013.98 1014.11 1014.13 1014.06 1013.94 1013.81 1013.71 1013.67 1013.70 1013.80 1013.95 1014.11 1014.28 1014.42 1014.53 1014.62 1014.68 1014.75 1014.83 1014.94 1015.09 1015.26 1015.47 1015.69 1015.92 1016.14 1016.35 1016.55 1016.75 1016.93 1017.10 1017.26 1017.42 1017.55 1017.66 1017.74 1017.80 1017.82 1017.81
1012.63 1012.98 1013.35 1013.70 1013.97 1014.13 1014.17 1014.10 1013.97 1013.82 1013.67 1013.57 1013.54 1013.57 1013.65 1013.76 1013.86 1013.94 1013.99 1014.01 1014.00 1013.97 1013.96 1013.96 1014.01 1014.10 1014.24 1014.43 1014.66 1014.93 1015.23 1015.56 1015.90 1016.25 1016.61 1016.96 1017.29 1017.59 1017.85 1018.06 1018.21 1018.30 1018.35
1012.69 1013.07 1013.48 1013.85 1014.15 1014.32 1014.37 1014.32 1014.18 1014.00 1013.82 1013.68 1013.58 1013.55 1013.56 1013.59 1013.62 1013.63 1013.60 1013.52 1013.42 1013.29 1013.17 1013.06 1013.00 1013.00 1013.07 1013.21 1013.44 1013.74 1014.11 1014.54 1015.02 1015.53 1016.06 1016.59 1017.09 1017.56 1017.97 1018.31 1018.57 1018.76 1018.87
1012.92 1013.34 1013.77 1014.16 1014.47 1014.65 1014.71 1014.66 1014.52 1014.33 1014.13 1013.95 1013.82 1013.73 1013.67 1013.63 1013.59 1013.51 1013.40 1013.23 1013.03 1012.80 1012.57 1012.36 1012.19 1012.10 1012.10 1012.20 1012.41 1012.73 1013.14 1013.65 1014.23 1014.87 1015.54 1016.21 1016.86 1017.46 1018.00 1018.46 1018.83 1019.11 1019.30
1013.29 1013.73 1014.17 1014.57 1014.87 1015.06 1015.13 1015.08 1014.95 1014.77 1014.57 1014.38 1014.22 1014.09 1013.99 1013.89 1013.77 1013.63 1013.43 1013.19 1012.90 1012.58 1012.26 1011.96 1011.72 1011.55 1011.49 1011.55 1011.74 1012.05 1012.50 1013.05 1013.70 1014.41 1015.17 1015.93 1016.67 1017.37 1017.99 1018.54 1018.99 1019.34 1019.60
1013.73 1014.19 1014.62 1015.01 1015.31 1015.49 1015.57 1015.54 1015.43 1015.28 1015.10 1014.92 1014.76 1014.61 1014.48 1014.34 1014.18 1013.98 1013.73 1013.42 1013.07 1012.69 1012.31 1011.96 1011.66 1011.45 1011.35 1011.38 1011.55 1011.86 1012.31 1012.88 1013.54 1014.28 1015.07 1015.86 1016.63 1017.36 1018.01 1018.58 1019.07 1019.46 1019.76
1014.19 1014.64 1015.07 1015.44 1015.72 1015.92 1016.01 1016.01 1015.94 1015.83 1015.69 1015.55 1015.40 1015.27 1015.13 1014.97 1014.78 1014.55 1014.27 1013.93 1013.55 1013.15 1012.76 1012.38 1012.07 1011.85 1011.74 1011.76 1011.92 1012.22 1012.65 1013.20 1013.85 1014.56 1015.32 1016.08 1016.82 1017.51 1018.13 1018.67 1019.14 1019.52 1019.83
1014.62 1015.06 1015.46 1015.82 1016.11 1016.31 1016.43 1016.49 1016.48 1016.42 1016.34 1016.25 1016.14 1016.03 1015.90 1015.74 1015.55 1015.31 1015.02 1014.69 1014.32 1013.93 1013.55 1013.21 1012.92 1012.71 1012.61 1012.64 1012.79 1013.08 1013.49 1014.00 1014.60 1015.25 1015.93 1016.61 1017.26 1017.86 1018.39 1018.86 1019.25 1019.58 1019.86
1014.99 1015.41 1015.80 1016.15 1016.45 1016.69 1016.86 1016.98 1017.04 1017.06 1017.05 1017.01 1016.95 1016.86 1016.75 1016.61 1016.43 1016.20 1015.93 1015.62 1015.29 1014.95 1014.62 1014.32 1014.08 1013.92 1013.85 1013.90 1014.06 1014.33 1014.70 1015.16 1015.69 1016.26 1016.83 1017.40 1017.92 1018.40 1018.81 1019.16 1019.46 1019.70 1019.92
1015.29 1015.70 1016.09 1016.45 1016.78 1017.07 1017.31 1017.50 1017.64 1017.74 1017.80 1017.82 1017.80 1017.75 1017.66 1017.53 1017.36 1017.16 1016.92 1016.66 1016.38 1016.10 1015.83 1015.60 1015.42 1015.31 1015.29 1015.36 1015.52 1015.77 1016.11 1016.51 1016.96 1017.43 1017.90 1018.34 1018.73 1019.07 1019.35 1019.58 1019.76 1019.91 1020.05
1015.55 1015.95 1016.35 1016.74 1017.12 1017.47 1017.79 1018.06 1018.28 1018.46 1018.58 1018.65 1018.66 1018.63 1018.56 1018.45 1018.30 1018.12 1017.92 1017.70 1017.48 1017.27 1017.08 1016.92 1016.80 1016.74 1016.75 1016.84 1017.00 1017.23 1017.53 1017.87 1018.24 1018.62 1018.98 1019.31 1019.58 1019.80 1019.97 1020.08 1020.16 1020.22 1020.29
1015.77 1016.18 1016.60 1017.04 1017.47 1017.90 1018.29 1018.64 1018.94 1019.18 1019.35 1019.46 1019.50 1019.48 1019.41 1019.31 1019.18 1019.03 1018.86 1018.69 1018.53 1018.38 1018.25 1018.15 1018.08 1018.07 1018.10 1018.19 1018.34 1018.54 1018.80 1019.08 1019.39 1019.69 1019.96 1020.20 1020.39 1020.52 1020.59 1020.62 1020.63 1020.62 1020.63
1016.00 1016.42 1016.87 1017.35 1017.85 1018.34 1018.80 1019.22 1019.58 1019.87 1020.07 1020.20 1020.25 1020.24 1020.18 1020.08 1019.97 1019.84 1019.71 1019.58 1019.47 1019.38 1019.30 1019.24 1019.21 1019.21 1019.25 1019.33 1019.46 1019.63 1019.84 1020.07 1020.32 1020.56 1020.77 1020.95 1021.08 1021.16 1021.19 1021.18 1021.14 1021.10 1021.08
1016.26 1016.69 1017.17 1017.69 1018.23 1018.78 1019.29 1019.76 1020.16 1020.47 1020.70 1020.83 1020.89 1020.88 1020.82 1020.74 1020.64 1020.54 1020.44 1020.36 1020.30 1020.25 1020.21 1020.18 1020.17 1020.17 1020.20 1020.26 1020.36 1020.49 1020.65 1020.83 1021.03 1021.23 1021.41 1021.56 1021.67 1021.73 1021.74 1021.72 1021.69 1021.64 1021.62
1016.57 1017.00 1017.50 1018.04 1018.61 1019.18 1019.73 1020.22 1020.64 1020.96 1021.19 1021.33 1021.39 1021.38 1021.34 1021.27 1021.20 1021.13 1021.08 1021.05 1021.03 1021.02 1021.01 1021.00 1021.00 1021.00 1021.01 1021.04 1021.09 1021.18 1021.29 1021.44 1021.60 1021.77 1021.93 1022.06 1022.17 1022.24 1022.27 1022.26 1022.24 1022.22 1022.20
1016.92 1017.35 1017.85 1018.39 1018.96 1019.54 1020.08 1020.57 1020.99 1021.31 1021.54 1021.68 1021.75 1021.77 1021.75 1021.71 1021.68 1021.67 1021.67 1021.69 1021.71 1021.74 1021.76 1021.77 1021.77 1021.77 1021.76 1021.75 1021.77 1021.82 1021.89 1021.99 1022.12 1022.26 1022.40 1022.54 1022.65 1022.73 1022.78 1022.80 1022.81 1022.80 1022.80
1017.30 1017.72 1018.19 1018.72 1019.27 1019.82 1020.35 1020.82 1021.22 1021.54 1021.77 1021.92 1022.01 1022.06 1022.08 1022.10 1022.13 1022.18 1022.24 1022.31 1022.39 1022.46 1022.52 1022.55 1022.55 1022.54 1022.51 1022.49 1022.47 1022.48 1022.52 1022.58 1022.68 1022.79 1022.91 1023.03 1023.13 1023.22 1023.28 1023.32 1023.35 1023.36 1023.37
1017.68 1018.07 1018.52 1019.01 1019.52 1020.04 1020.53 1020.98 1021.36 1021.67 1021.91 1022.09 1022.21 1022.31 1022.39 1022.48 1022.58 1022.69 1022.82 1022.96 1023.09 1023.20 1023.29 1023.34 1023.36 1023.35 1023.32 1023.27 1023.24 1023.21 1023.22 1023.25 1023.30 1023.38 1023.47 1023.56 1023.64 1023.71 1023.77 1023.81 1023.83 1023.85 1023.86
1018.03 1018.39 1018.79 1019.24 1019.71 1020.19 1020.64 1021.07 1021.44 1021.75 1022.01 1022.22 1022.40 1022.55 1022.71 1022.87 1023.04 1023.23 1023.42 1023.62 1023.80 1023.95 1024.07 1024.15 1024.18 1024.18 1024.14 1024.09 1024.04 1023.99 1023.97 1023.96 1023.98 1024.01 1024.05 1024.10 1024.15 1024.18 1024.21 1024.22 1024.23 1024.23 1024.23
1018.30 1018.63 1019.00 1019.40 1019.84 1020.27 1020.70 1021.11 1021.48 1021.80 1022.10 1022.36 1022.59 1022.82 1023.04 1023.28 1023.52 1023.78 1024.03 1024.27 1024.49 1024.68 1024.82 1024.91 1024.96 1024.96 1024.93 1024.88 1024.82 1024.76 1024.71 1024.67 1024.64 1024.62 1024.61 1024.61 1024.60 1024.58 1024.56 1024.53 1024.50 1024.48 1024.46
1018.47 1018.78 1019.12 1019.49 1019.89 1020.30 1020.72 1021.12 1021.50 1021.85 1022.19 1022.50 1022.80 1023.10 1023.40 1023.70 1024.01 1024.31 1024.60 1024.87 1025.12 1025.31 1025.47 1025.57 1025.62 1025.63 1025.61 1025.56 1025.49 1025.42 1025.35 1025.28 1025.21 1025.15 1025.09 1025.02 1024.95 1024.87 1024.80 1024.72 1024.65 1024.60 1024.55
1018.53 1018.82 1019.14 1019.50 1019.88 1020.28 1020.69 1021.10 1021.50 1021.90 1022.28 1022.65 1023.02 1023.38 1023.74 1024.10 1024.45 1024.79 1025.10 1025.38 1025.63 1025.83 1025.98 1026.07 1026.13 1026.14 1026.11 1026.06 1026.00 1025.92 1025.83 1025.74 1025.64 1025.54 1025.43 1025.31 1025.18 1025.05 1024.93 1024.81 1024.70 1024.62 1024.55
1018.47 1018.76 1019.08 1019.42 1019.80 1020.20 1020.62 1021.05 1021.48 1021.92 1022.35 1022.78 1023.20 1023.63 1024.04 1024.44 1024.82 1025.17 1025.49 1025.78 1026.01 1026.20 1026.33 1026.42 1026.46 1026.46 1026.44 1026.39 1026.32 1026.24 1026.15 1026.04 1025.92 1025.79 1025.65 1025.49 1025.32 1025.16 1025.00 1024.85 1024.72 1024.61 1024.54
1018.34 1018.63 1018.94 1019.29 1019.67 1020.08 1020.51 1020.96 1021.42 1021.90 1022.37 1022.85 1023.33 1023.80 1024.25 1024.68 1025.09 1025.45 1025.78 1026.05 1026.27 1026.44 1026.56 1026.63 1026.66 1026.66 1026.63 1026.58 1026.51 1026.43 1026.34 1026.23 1026.10 1025.95 1025.79 1025.62 1025.43 1025.25 1025.07 1024.91 1024.76 1024.65 1024.57
1018.17 1018.46 1018.78 1019.13 1019.51 1019.93 1020.37 1020.83 1021.32 1021.82 1022.33 1022.85 1023.37 1023.88 1024.36 1024.83 1025.25 1025.63 1025.96 1026.23 1026.44 1026.59 1026.70 1026.76 1026.78 1026.78 1026.75 1026.70 1026.64 1026.57 1026.48 1026.38 1026.25 1026.11 1025.95 1025.77 1025.59 1025.40 1025.22 1025.05 1024.91 1024.80 1024.71
Thickness
5756 5753 5751 5749 5748 5746 5745 5743 5743 5742 5741 5740 5739 5738 5736 5735 5733 5732 5730 5729 5727 5727 5726 5725 5724 5723 5722 5721 5719 5718 5716 5714 5711 5713 5714 5715 5715 5715 5715 5714 5713 5712 5711
5754 5751 5748 5746 5744 5743 5742 5742 5741 5740 5739 5738 5736 5735 5733 5732 5730 5729 5727 5726 5724 5723 5723 5722 5721 5720 5718 5717 5715 5714 5713 5711 5708 5706 5707 5707 5707 5708 5707 5707 5706 5705 5704
5752 5748 5745 5743 5742 5740 5739 5739 5738 5736 5735 5734 5733 5732 5730 5729 5727 5725 5724 5722 5721 5720 5719 5718 5717 5715 5713 5712 5711 5710 5708 5707 5704 5701 5700 5699 5699 5700 5699 5698 5697 5697 5696
5748 5745 5742 5740 5739 5738 5736 5735 5734 5732 5731 5730 5729 5728 5727 5725 5724 5722 5720 5718 5716 5716 5715 5714 5712 5711 5710 5708 5706 5705 5703 5700 5697 5695 5692 5691 5690 5690 5689 5687 5687 5687 5686
5744 5740 5738 5737 5737 5734 5733 5731 5729 5728 5726 5725 5724 5723 5722 5720 5719 5718 5716 5713 5711 5709 5708 5707 5707 5706 5705 5703 5701 5698 5696 5693 5690 5687 5685 5683 5681 5680 5679 5679 5677 5677 5676
5739 5735 5734 5733 5732 5730 5728 5726 5724 5722 5721 5719 5718 5717 5715 5714 5712 5712 5711 5708 5705 5703 5701 5700 5699 5698 5697 5696 5694 5692 5690 5687 5684 5681 5677 5675 5673 5672 5671 5670 5668 5667 5665
5734 5731 5730 5729 5727 5724 5722 5720 5717 5716 5714 5712 5711 5710 5707 5705 5704 5704 5703 5702 5698 5696 5694 5693 5692 5690 5689 5687 5685 5683 5680 5678 5676 5673 5669 5666 5664 5662 5661 5660 5658 5655 5652
5731 5728 5726 5724 5721 5719 5717 5713 5711 5709 5707 5705 5703 5702 5699 5697 5696 5696 5696 5694 5690 5687 5686 5684 5683 5681 5680 5678 5676 5672 5669 5666 5665 5663 5660 5657 5654 5652 5650 5649 5646 5643 5640
5726 5724 5722 5719 5717 5714 5711 5708 5705 5703 5700 5697 5694 5693 5691 5688 5688 5689 5688 5685 5681 5678 5676 5674 5673 5671 5669 5668 5666 5661 5657 5654 5652 5650 5647 5645 5642 5641 5639 5637 5634 5632 5628
5721 5719 5716 5714 5712 5708 5705 5702 5699 5697 5693 5690 5686 5684 5681 5679 5679 5680 5679 5676 5672 5668 5665 5663 5661 5660 5658 5657 5655 5651 5646 5641 5639 5637 5634 5632 5629 5627 5625 5623 5621 5619 5616
5715 5713 5710 5708 5705 5702 5699 5696 5693 5689 5685 5682 5678 5674 5672 5670 5670 5670 5669 5667 5662 5659 5655 5651 5648 5647 5646 5644 5641 5638 5633 5630 5627 5624 5620 5617 5615 5613 5611 5609 5607 5605 5602
5708 5705 5702 5700 5698 5694 5692 5688 5685 5682 5677 5673 5669 5666 5662 5660 5659 5658 5657 5655 5652 5648 5643 5639 5635 5634 5633 5630 5627 5623 5621 5618 5615 5611 5607 5603 5600 5598 5596 5594 5592 5590 5587
5701 5697 5694 5691 5689 5686 5683 5679 5676 5672 5669 5664 5661 5657 5653 5650 5648 5647 5645 5643 5640 5636 5631 5627 5624 5623 5621 5617 5613 5611 5608 5605 5602 5598 5594 5589 5586 5584 5583 5581 5579 5577 5574
5692 5688 5684 5681 5678 5675 5672 5669 5666 5663 5660 5656 5652 5647 5643 5640 5638 5636 5633 5631 5628 5624 5620 5616 5613 5610 5608 5604 5600 5597 5594 5591 5588 5584 5580 5577 5574 5572 5570 5567 5565 5563 5561
5683 5678 5674 5670 5667 5662 5658 5654 5652 5649 5649 5646 5642 5639 5636 5631 5626 5625 5623 5620 5616 5613 5609 5606 5602 5598 5594 5590 5587 5583 5580 5577 5574 5571 5567 5565 5562 5559 5556 5553 5550 5548 5546
5674 5669 5665 5661 5657 5653 5649 5642 5638 5637 5635 5634 5631 5628 5623 5620 5617 5615 5612 5608 5605 5602 5599 5593 5588 5584 5581 5577 5574 5570 5567 5563 5560 5557 5554 5552 5549 5546 5543 5540 5537 5534 5531
5666 5661 5656 5652 5649 5645 5641 5637 5631 5625 5623 5621 5619 5616 5613 5609 5607 5603 5600 5596 5593 5591 5586 5580 5575 5571 5568 5564 5561 5558 5554 5550 5547 5544 5541 5538 5535 5533 5530 5526 5523 5520 5517
5658 5653 5648 5644 5640 5636 5632 5628 5624 5620 5614 5608 5604 5603 5601 5598 5595 5592 5590 5587 5581 5577 5572 5567 5563 5559 5555 5552 5548 5545 5541 5538 5535 5531 5528 5525 5522 5519 5516 5513 5510 5506 5503
5648 5643 5639 5635 5631 5626 5622 5617 5613 5609 5604 5598 5594 5591 5588 5586 5584 5581 5578 5575 5570 5564 5559 5555 5551 5547 5543 5539 5535 5532 5528 5525 5521 5518 5515 5512 5509 5507 5504 5500 5497 5492 5490
5638 5634 5630 5625 5621 5617 5612 5608 5603 5599 5594 5590 5586 5582 5579 5577 5573 5568 5565 5561 5557 5552 5547 5543 5539 5534 5531 5527 5523 5520 5516 5513 5510 5507 5503 5500 5497 5494 5492 5488 5486 5483 5480
5628 5624 5620 5615 5611 5607 5603 5598 5594 5590 5585 5581 5576 5572 5569 5566 5561 5557 5553 5549 5545 5540 5535 5531 5527 5523 5519 5515 5512 5508 5505 5502 5498 5495 5492 5489 5486 5484 5481 5478 5476 5473 5471
5617 5613 5609 5605 5601 5597 5593 5588 5584 5580 5576 5571 5566 5562 5558 5555 5550 5545 5541 5537 5533 5528 5524 5520 5516 5512 5507 5504 5500 5497 5494 5491 5488 5485 5482 5479 5477 5474 5472 5469 5467 5465 5462
5607 5603 5599 5595 5591 5587 5583 5578 5574 5570 5565 5561 5557 5552 5548 5544 5539 5535 5530 5526 5521 5517 5513 5509 5505 5501 5496 5492 5489 5486 5483 5480 5477 5474 5472 5470 5468 5465 5462 5460 5458 5456 5455
5597 5594 5590 5585 5581 5577 5573 5568 5564 5560 5556 5551 5547 5542 5538 5533 5529 5524 5519 5515 5511 5506 5502 5498 5494 5490 5486 5482 5479 5476 5473 5471 5468 5466 5463 5461 5459 5457 5455 5453 5451 5449 5447
5587 5584 5580 5576 5572 5568 5563 5559 5554 5550 5546 5542 5538 5533 5528 5523 5519 5514 5509 5505 5501 5496 5492 5488 5484 5480 5476 5473 5470 5467 5465 5463 5461 5458 5456 5453 5451 5449 5447 5446 5444 5443 5441
5579 5575 5571 5568 5564 5559 5555 5550 5546 5542 5537 5533 5528 5523 5519 5514 5510 5505 5500 5496 5491 5487 5482 5478 5475 5471 5468 5465 5462 5460 5458 5456 5454 5451 5449 5447 5445 5443 5441 5440 5438 5437 5436